Weather Service Report


016 
ASUS44 KLIX 182013
RWRLA 
LOUISIANA WEATHER ROUNDUP
NATIONAL WEATHER SERVICE NEW ORLEANS LA
200 PM CST WED JAN 18 2017

NOTE: "FAIR" INDICATES FEW OR NO CLOUDS BELOW 12,000 FEET WITH NO
      SIGNIFICANT WEATHER AND/OR OBSTRUCTIONS TO VISIBILITY.
      SKY/WX - SKY CONDITION AND SIGNIFICANT WEATHER.
      TMP - AIR TEMPERATURE.    DP   - DEWPOINT TEMPERATURE.
      RH  - RELATIVE HUMIDITY.  PRES - PRESSURE.
      HX  - HEAT INDEX.         WCI  - WIND CHILL INDEX.

*  THESE STATIONS ARE NOT NWS OR FAA STATIONS AND ARE NOT UNDER
   NWS QUALITY CONTROL.

LAZ040-048-061>063-065-066-069-182100-
SOUTHEAST LOUISIANA
  
CITY           SKY/WX    TMP DP  RH WIND       PRES   REMARKS
N.O. AUDUBON   NOT AVBL                                               
N.O. INTL ARPT PTSUNNY   77  67  71 S12       30.05F                  
N.O. LAKEFRONT MOSUNNY   80  67  64 S14       30.06F                  
N.O. DOWNTOWN*   N/A     79  66  64 S10       30.06F                  
RESERVE*       MOCLDY    80  67  64 S12       30.05F                  
SLIDELL        PTSUNNY   76  67  73 SE10      30.06F                  
BATON ROUGE    CLOUDY    79  65  62 S14       30.03F                  
BOOTHVILLE     MOSUNNY   74  69  85 S9        30.09F                  
BELLE CHASSE   PTSUNNY   78  69  73 S12       30.06F                  
BOGALUSA*      MOCLDY    78  63  59 S10       30.09F                  
GALLIANO*      CLOUDY    75  68  78 SE8       30.07F                  
NEW ROADS*     CLOUDY    76  65  68 S8        30.02F                  
GONZALES*      MOCLDY    77  65  65 S8        30.03F                  
HAMMOND*       MOSUNNY   77  64  65 SE9       30.05F                  
HOUMA*         PTSUNNY   75  70  83 SE12      30.07F                  
PORT FOURCHON* MOCLDY    72  70  94 SE8       30.07F                  

$$

LAZ041-044-053-054-182100-
SOUTHWEST LOUISIANA
  
CITY           SKY/WX    TMP DP  RH WIND       PRES   REMARKS
LAKE CHARLES   PTSUNNY   76  68  76 S13G23    30.00F                  
LAFAYETTE      PTSUNNY   78  69  73 S13G23    30.02F                  
PATTERSON      CLOUDY    77  68  73 S12       30.05F                  
SALT POINT     NOT AVBL                                               
NEW IBERIA     PTSUNNY   77  67  71 S17       30.03F                  
CHENAULT AIRPK PTSUNNY   77  70  78 S18G25    30.00F                  

$$

LAZ027-028-182100-
CENTRAL LOUISIANA
  
CITY           SKY/WX    TMP DP  RH WIND       PRES   REMARKS
FORT POLK      CLOUDY    70  70 100 CALM      29.97F                  
ALEXANDRIA INT RAIN      65  65 100 NE3       29.99F FOG              
ALEXANDRIA     LGT RAIN  65  65 100 NE5       30.01F                  

$$

LAZ001-002-182100-
NORTHWEST LOUISIANA
  
CITY           SKY/WX    TMP DP  RH WIND       PRES   REMARKS
SHREVEPORT     HVY RAIN  57  56  96 NW9       30.06R FOG              
BARKSDALE AFB  RAIN      55  55 100 NW18      30.05R FOG              
DTN SHREVEPORT HVY RAIN  54  53  97 VRB5      30.07R VSB 1            

$$

LAZ014-016-182100-
NORTHEAST LOUISIANA
  
CITY           SKY/WX    TMP DP  RH WIND       PRES   REMARKS
MONROE         CLOUDY    57  55  93 NE5       30.05F                  
TALLULAH       PTSUNNY   69  63  81 E5        30.02F                  

$$

  


017 
ASUS44 KLIX 182013
RWRLIX
NEW ORLEANS REGIONAL WEATHER ROUNDUP
NATIONAL WEATHER SERVICE NEW ORLEANS LA
200 PM CST WED JAN 18 2017

NOTE: "FAIR" INDICATES FEW OR NO CLOUDS BELOW 12,000 FEET WITH NO
      SIGNIFICANT WEATHER AND/OR OBSTRUCTIONS TO VISIBILITY.
      SKY/WX - SKY CONDITION AND SIGNIFICANT WEATHER.
      TMP - AIR TEMPERATURE.     DP    - DEWPOINT TEMPERATURE.
      RH  - RELATIVE HUMIDITY.   PRES  - PRESSURE.
      HI  - HEAT INDEX.          WCI   - WIND CHILL INDEX.

*  THESE STATIONS ARE NOT NWS OR FAA STATIONS AND ARE NOT UNDER
   NWS QUALITY CONTROL. 

LAZ038-040-048-061>063-065>067-069-182100-
SOUTHEAST LOUISIANA
  
CITY           SKY/WX    TMP DP  RH WIND       PRES   REMARKS
N.O. AUDUBON   NOT AVBL                                               
N.O. INTL ARPT PTSUNNY   77  67  71 S12       30.05F                  
N.O. LAKEFRONT MOSUNNY   80  67  64 S14       30.06F                  
N.O. DOWNTOWN*   N/A     79  66  64 S10       30.06F                  
RESERVE*       MOCLDY    80  67  64 S12       30.05F                  
SLIDELL        PTSUNNY   76  67  73 SE10      30.06F                  
BATON ROUGE    CLOUDY    79  65  62 S14       30.03F                  
BOOTHVILLE     MOSUNNY   74  69  85 S9        30.09F                  
BELLE CHASSE   PTSUNNY   78  69  73 S12       30.06F                  
BOGALUSA*      MOCLDY    78  63  59 S10       30.09F                  
GALLIANO*      CLOUDY    75  68  78 SE8       30.07F                  
NEW ROADS*     CLOUDY    76  65  68 S8        30.02F                  
GONZALES*      MOCLDY    77  65  65 S8        30.03F                  
HAMMOND*       MOSUNNY   77  64  65 SE9       30.05F                  
HOUMA*         PTSUNNY   75  70  83 SE12      30.07F                  
PORT FOURCHON* MOCLDY    72  70  94 SE8       30.07F                  

$$

MSZ070-080>082-182100-
SOUTHERN MISSISSIPPI
  
CITY           SKY/WX    TMP DP  RH WIND       PRES   REMARKS
MCCOMB         PTSUNNY   75  61  61 S12       30.05F                  
GULFPORT       PTSUNNY   71  67  87 S7        30.09F                  
BILOXI         PTSUNNY   73  64  73 S9        30.09F                  
PASCAGOULA     PTSUNNY   76  63  64 SE7       30.09F                  
STENNIS ARPT*  PTSUNNY   73  63  68 S5        30.08F                  

$$

COASTAL OBSERVATIONS
LAKE AND NEARSHORE STATIONS
  
STATION/POSITION TIME  TEMP    WIND        PRES    WAVE
                       AIR SEA DIR/SP/G            HT/PER
                 (UTC) (F)     (DEG/KT/KT) (MB)    (FT/S)
PASCAGOULA       1942   70     170/  5/  6 1018.9
WAVELAND YACHT   1942   67 67  160/  7/  7 1019.3
GRAND ISLE       1942   69 69  140/  6/  9 1018.7
SOUTHWEST PASS   1942          120/  9/ 10   N/A
NEW CANAL        1942   77 58  200/  7/ 10 1017.4
SHELL BEACH      1942   74 66  150/  9/ 13 1018.6

OFFSHORE STATIONS
  
STATION/POSITION TIME  TEMP    WIND        PRES    WAVE
                       AIR SEA DIR/SP/G            HT/PER
                 (UTC) (F)     (DEG/KT/KT) (MB)    (FT/S)

$$

  

Return to Home page


Western Regional Climate Center, wrcc@dri.edu